Location: ????????
(48.4751°N, 37.6926°E)
Time: 02:29:53
(UTC+00:00)

Meteor 2-13 Rocket - Pass Details

Date: 20 January 2021
Orbit: 936 x 957 km, 82.5° (Epoch: 24 February)

Event Time Altitude Azimuth Distance (km) Brightness Sun altitude
Rises 15:44:22 0° 175° (S) 3,601 7.6 -15.5°
Reaches altitude 10° 15:46:52 10° 172° (S) 2,663 6.8 -15.9°
Maximum altitude 15:52:51 61° 94° (E) 1,071 4.4 -16.8°
Drops below altitude 10° 15:58:54 10° 16° (NNE) 2,695 6.6 -17.8°
Sets 16:01:26 0° 13° (NNE) 3,647 7.3 -18.2°
